LNI214 WAEE-WAAA

Flight info

Callsign LNI214
Flight time 1h 43m
Altitude 38000
Route TELES A450 KENDO
Aircraft B738/M-SDE2E3FGHIRWXY/LB1

Departure

Time 2026-04-21 12:42
Airport Sultan Babullah Airport (WAEE)

Arrival

Time 2026-04-21 14:26
Airport Sultan Hasanuddin International Airport (WAAA)
Time Latitude Longitude Altitude Speed Heading
2026-04-21 12:09 0.83404 127.37703 84 ft 0 kts 231°
2026-04-21 12:31 0.83408 127.37708 82 ft 2 kts 231°
2026-04-21 12:32 0.83417 127.37719 86 ft 2 kts 233°
2026-04-21 12:32 0.83425 127.37730 89 ft 2 kts 230°
2026-04-21 12:32 0.83431 127.37737 87 ft 1 kts 214°
2026-04-21 12:32 0.83436 127.37740 86 ft 1 kts 178°
2026-04-21 12:33 0.83442 127.37739 87 ft 1 kts 152°
2026-04-21 12:33 0.83447 127.37736 87 ft 1 kts 144°
2026-04-21 12:33 0.83451 127.37733 90 ft 1 kts 142°
2026-04-21 12:33 0.83451 127.37732 90 ft 0 kts 142°
2026-04-21 12:36 0.83450 127.37734 90 ft 1 kts 141°
2026-04-21 12:36 0.83430 127.37750 87 ft 7 kts 141°
2026-04-21 12:36 0.83396 127.37790 88 ft 6 kts 99°
2026-04-21 12:36 0.83360 127.37832 86 ft 10 kts 141°
2026-04-21 12:37 0.83289 127.37885 85 ft 15 kts 143°
2026-04-21 12:37 0.83228 127.37931 87 ft 4 kts 141°
2026-04-21 12:37 0.83225 127.37958 87 ft 4 kts 69°
2026-04-21 12:37 0.83242 127.37985 87 ft 5 kts 60°
2026-04-21 12:38 0.83264 127.38014 86 ft 5 kts 56°
2026-04-21 12:38 0.83258 127.38046 82 ft 5 kts 127°
2026-04-21 12:38 0.83229 127.38070 83 ft 8 kts 140°
2026-04-21 12:38 0.83149 127.38134 82 ft 21 kts 141°
2026-04-21 12:39 0.83011 127.38245 81 ft 30 kts 141°
2026-04-21 12:39 0.82819 127.38396 78 ft 40 kts 142°
2026-04-21 12:39 0.82587 127.38584 78 ft 44 kts 140°
2026-04-21 12:39 0.82429 127.38711 77 ft 4 kts 138°
2026-04-21 12:40 0.82406 127.38740 70 ft 9 kts 121°
2026-04-21 12:40 0.82369 127.38783 74 ft 2 kts 179°
2026-04-21 12:40 0.82359 127.38770 73 ft 2 kts 257°
2026-04-21 12:40 0.82368 127.38756 74 ft 0 kts 321°
2026-04-21 12:41 0.82549 127.38614 69 ft 73 kts 321°
2026-04-21 12:42 0.83140 127.38141 82 ft 144 kts 321°
2026-04-21 12:42 0.84041 127.37409 407 ft 175 kts 321°
2026-04-21 12:42 0.85081 127.36832 1261 ft 176 kts 353°
2026-04-21 12:42 0.86286 127.36791 2112 ft 178 kts
2026-04-21 12:43 0.87656 127.36724 2407 ft 214 kts 358°
2026-04-21 12:43 0.89249 127.36601 2641 ft 240 kts 356°
2026-04-21 12:43 0.90925 127.36438 3324 ft 246 kts 356°
2026-04-21 12:43 0.92708 127.36246 3630 ft 276 kts 355°
2026-04-21 12:44 0.94726 127.36013 4054 ft 294 kts 355°
2026-04-21 12:44 0.96728 127.35803 5294 ft 284 kts 355°
2026-04-21 12:44 0.98589 127.35250 6458 ft 279 kts 330°
2026-04-21 12:44 0.99973 127.33942 7499 ft 276 kts 304°
2026-04-21 12:45 1.00704 127.32151 8092 ft 291 kts 280°
2026-04-21 12:45 1.00812 127.30096 8796 ft 299 kts 270°
2026-04-21 12:45 1.00767 127.28007 9615 ft 303 kts 268°
2026-04-21 12:45 1.00711 127.25890 10333 ft 309 kts 269°
2026-04-21 12:46 1.00669 127.23659 10565 ft 334 kts 269°
2026-04-21 12:46 1.00639 127.21259 10762 ft 356 kts 269°
2026-04-21 12:46 1.00281 127.18772 11191 ft 367 kts 250°
2026-04-21 12:46 0.99000 127.16567 11850 ft 369 kts 227°
2026-04-21 12:47 0.97009 127.15023 12521 ft 369 kts 206°
2026-04-21 12:47 0.94575 127.14236 12870 ft 368 kts 190°
2026-04-21 12:47 0.92056 127.13650 12880 ft 373 kts 194°
2026-04-21 12:47 0.89586 127.12887 12889 ft 371 kts 197°
2026-04-21 12:48 0.87138 127.12074 12890 ft 371 kts 197°
2026-04-21 12:48 0.84682 127.11259 13032 ft 375 kts 197°
2026-04-21 12:48 0.82183 127.10448 13700 ft 378 kts 196°
2026-04-21 12:48 0.79671 127.09646 14349 ft 379 kts 196°
2026-04-21 12:49 0.77148 127.08850 14945 ft 381 kts 196°
2026-04-21 12:49 0.74606 127.08050 15507 ft 385 kts 196°
2026-04-21 12:49 0.72066 127.07253 16050 ft 389 kts 196°
2026-04-21 12:49 0.69474 127.06444 16607 ft 392 kts 196°
2026-04-21 12:50 0.66861 127.05630 17154 ft 395 kts 196°
2026-04-21 12:50 0.64221 127.04808 17690 ft 398 kts 196°
2026-04-21 12:50 0.61566 127.03980 18214 ft 402 kts 196°
2026-04-21 12:50 0.58881 127.03143 18663 ft 405 kts 196°
2026-04-21 12:51 0.56178 127.02300 19131 ft 407 kts 196°
2026-04-21 12:51 0.53463 127.01453 19579 ft 410 kts 196°
2026-04-21 12:51 0.50730 127.00600 20020 ft 412 kts 196°
2026-04-21 12:51 0.48018 126.99755 20449 ft 415 kts 196°
2026-04-21 12:52 0.45250 126.98892 20880 ft 418 kts 196°
2026-04-21 12:52 0.42464 126.98024 21302 ft 420 kts 195°
2026-04-21 12:52 0.39655 126.97148 21715 ft 423 kts 195°
2026-04-21 12:52 0.36836 126.96269 22123 ft 426 kts 195°
2026-04-21 12:53 0.33997 126.95384 22525 ft 428 kts 195°
2026-04-21 12:53 0.31138 126.94493 22919 ft 431 kts 195°
2026-04-21 12:53 0.28302 126.93608 23304 ft 433 kts 195°
2026-04-21 12:53 0.25420 126.92709 23644 ft 436 kts 195°
2026-04-21 12:54 0.22517 126.91804 23959 ft 438 kts 195°
2026-04-21 12:54 0.19604 126.90895 24276 ft 440 kts 195°
2026-04-21 12:54 0.16677 126.89982 24590 ft 441 kts 195°
2026-04-21 12:54 0.13740 126.89066 24906 ft 443 kts 195°
2026-04-21 12:55 0.10788 126.88145 25213 ft 445 kts 195°
2026-04-21 12:55 0.07820 126.87219 25521 ft 447 kts 195°
2026-04-21 12:55 0.04846 126.86292 25822 ft 449 kts 195°
2026-04-21 12:55 0.01857 126.85359 26114 ft 451 kts 195°
2026-04-21 12:56 -0.01157 126.84419 26415 ft 453 kts 195°
2026-04-21 12:56 -0.04169 126.83479 26708 ft 454 kts 195°
2026-04-21 12:56 -0.07195 126.82535 26989 ft 456 kts 195°
2026-04-21 12:56 -0.10191 126.81601 27262 ft 458 kts 195°
2026-04-21 12:57 -0.13244 126.80650 27533 ft 460 kts 195°
2026-04-21 12:57 -0.16304 126.79696 27806 ft 462 kts 195°
2026-04-21 12:57 -0.19381 126.78737 28072 ft 463 kts 195°
2026-04-21 12:57 -0.22465 126.77776 28332 ft 465 kts 195°
2026-04-21 12:58 -0.25558 126.76811 28580 ft 467 kts 195°
2026-04-21 12:58 -0.28674 126.75839 28830 ft 469 kts 195°
2026-04-21 12:58 -0.31801 126.74864 29078 ft 470 kts 195°
2026-04-21 12:58 -0.34929 126.73888 29323 ft 472 kts 195°
2026-04-21 12:59 -0.38033 126.72920 29552 ft 474 kts 195°
2026-04-21 12:59 -0.41186 126.71937 29779 ft 475 kts 196°
2026-04-21 12:59 -0.44345 126.70952 29994 ft 477 kts 196°
2026-04-21 12:59 -0.47524 126.69960 30187 ft 478 kts 196°
2026-04-21 13:00 -0.50706 126.68968 30382 ft 480 kts 196°
2026-04-21 13:00 -0.53891 126.67974 30588 ft 480 kts 196°
2026-04-21 13:00 -0.57085 126.66978 30861 ft 479 kts 196°
2026-04-21 13:00 -0.60262 126.65986 31175 ft 478 kts 196°
2026-04-21 13:01 -0.63442 126.64994 31464 ft 477 kts 195°
2026-04-21 13:01 -0.66604 126.64008 31737 ft 476 kts 195°
2026-04-21 13:01 -0.69765 126.63022 32022 ft 476 kts 195°
2026-04-21 13:01 -0.72919 126.62038 32321 ft 475 kts 195°
2026-04-21 13:02 -0.76031 126.61066 32609 ft 474 kts 195°
2026-04-21 13:02 -0.79181 126.60084 32902 ft 473 kts 195°
2026-04-21 13:02 -0.85335 126.57765 33471 ft 476 kts 212°
2026-04-21 13:03 -0.87817 126.55583 33762 ft 479 kts 229°
2026-04-21 13:03 -0.89598 126.52775 34028 ft 480 kts 245°
2026-04-21 13:03 -0.90621 126.49594 34256 ft 481 kts 261°
2026-04-21 13:03 -0.90802 126.46297 34486 ft 481 kts 270°
2026-04-21 13:04 -0.90772 126.42915 34731 ft 481 kts 271°
2026-04-21 13:04 -0.90706 126.39618 34970 ft 480 kts 271°
2026-04-21 13:04 -0.90637 126.36281 35234 ft 479 kts 271°
2026-04-21 13:04 -0.90580 126.32946 35506 ft 478 kts 271°
2026-04-21 13:05 -0.90538 126.29628 35752 ft 477 kts 270°
2026-04-21 13:05 -0.90508 126.26315 35972 ft 477 kts 270°
2026-04-21 13:05 -0.90493 126.24114 36125 ft 477 kts 270°
2026-04-21 13:05 -0.90475 126.20796 36380 ft 476 kts 270°
2026-04-21 13:06 -0.90454 126.16421 36719 ft 474 kts 270°
2026-04-21 13:06 -0.90444 126.14193 36873 ft 474 kts 270°
2026-04-21 13:06 -0.90428 126.10902 37106 ft 473 kts 270°
2026-04-21 13:06 -0.90407 126.06548 37397 ft 473 kts 270°
2026-04-21 13:07 -0.90390 126.03264 37607 ft 472 kts 270°
2026-04-21 13:07 -0.90379 126.01051 37763 ft 472 kts 270°
2026-04-21 13:07 -0.90362 125.97811 37908 ft 473 kts 270°
2026-04-21 13:07 -0.90344 125.94507 37889 ft 475 kts 270°
2026-04-21 13:08 -0.90309 125.87922 37892 ft 472 kts 270°
2026-04-21 13:08 -0.90274 125.81381 37897 ft 469 kts 270°
2026-04-21 13:09 -0.90239 125.74883 37898 ft 466 kts 270°
2026-04-21 13:09 -0.90205 125.68408 37897 ft 465 kts 270°
2026-04-21 13:10 -0.90170 125.61946 37897 ft 465 kts 270°
2026-04-21 13:10 -0.90135 125.55470 37899 ft 467 kts 270°
2026-04-21 13:11 -0.90100 125.48976 37902 ft 468 kts 270°
2026-04-21 13:11 -0.90065 125.42448 37904 ft 471 kts 270°
2026-04-21 13:12 -0.90029 125.35926 37898 ft 473 kts 270°
2026-04-21 13:12 -0.89993 125.29346 37898 ft 474 kts 270°
2026-04-21 13:13 -0.89957 125.22727 37902 ft 475 kts 270°
2026-04-21 13:13 -0.89921 125.16118 37891 ft 476 kts 270°
2026-04-21 13:14 -0.89884 125.09546 37898 ft 476 kts 270°
2026-04-21 13:14 -0.89848 125.02941 37896 ft 475 kts 270°
2026-04-21 13:15 -0.89811 124.96345 37896 ft 474 kts 270°
2026-04-21 13:15 -0.89775 124.89777 37890 ft 472 kts 270°
2026-04-21 13:16 -0.89738 124.83219 37891 ft 471 kts 270°
2026-04-21 13:16 -0.89701 124.76678 37894 ft 470 kts 270°
2026-04-21 13:17 -0.89665 124.70185 37895 ft 469 kts 270°
2026-04-21 13:17 -0.89628 124.63673 37897 ft 468 kts 270°
2026-04-21 13:18 -0.89591 124.57171 37893 ft 468 kts 270°
2026-04-21 13:18 -0.89554 124.50658 37897 ft 468 kts 270°
2026-04-21 13:19 -0.89517 124.44152 37899 ft 468 kts 270°
2026-04-21 13:19 -0.89480 124.37644 37895 ft 469 kts 270°
2026-04-21 13:20 -0.89443 124.31125 37892 ft 469 kts 270°
2026-04-21 13:20 -0.89405 124.24639 37894 ft 470 kts 270°
2026-04-21 13:21 -0.89368 124.18100 37896 ft 470 kts 270°
2026-04-21 13:21 -0.89330 124.11557 37898 ft 471 kts 270°
2026-04-21 13:22 -0.89292 124.05004 37901 ft 471 kts 270°
2026-04-21 13:22 -0.89254 123.98447 37894 ft 472 kts 270°
2026-04-21 13:23 -0.89216 123.91926 37900 ft 472 kts 270°
2026-04-21 13:23 -0.89177 123.85368 37896 ft 472 kts 270°
2026-04-21 13:24 -0.89139 123.78789 37901 ft 472 kts 270°
2026-04-21 13:24 -0.89100 123.72233 37901 ft 472 kts 270°
2026-04-21 13:25 -0.89061 123.65671 37899 ft 471 kts 270°
2026-04-21 13:25 -0.89027 123.59121 37897 ft 471 kts 270°
2026-04-21 13:26 -0.88991 123.52620 37902 ft 470 kts 270°
2026-04-21 13:26 -0.88952 123.46078 37906 ft 470 kts 270°
2026-04-21 13:27 -0.88912 123.39560 37907 ft 469 kts 270°
2026-04-21 13:27 -0.88872 123.33039 37907 ft 469 kts 270°
2026-04-21 13:28 -0.88833 123.26524 37902 ft 469 kts 270°
2026-04-21 13:28 -0.88793 123.20016 37909 ft 468 kts 270°
2026-04-21 13:29 -0.88752 123.13510 37912 ft 468 kts 270°
2026-04-21 13:29 -0.88712 123.07020 37915 ft 467 kts 270°
2026-04-21 13:30 -0.89571 123.00684 37926 ft 465 kts 245°
2026-04-21 13:30 -0.91180 122.97893 37910 ft 464 kts 230°
2026-04-21 13:30 -0.93442 122.95634 37940 ft 461 kts 220°
2026-04-21 13:31 -0.98366 122.91487 37921 ft 462 kts 219°
2026-04-21 13:31 -1.03298 122.87348 37921 ft 463 kts 219°
2026-04-21 13:32 -1.08204 122.83157 37927 ft 464 kts 220°
2026-04-21 13:32 -1.13070 122.78961 37931 ft 465 kts 220°
2026-04-21 13:33 -1.17982 122.74717 37928 ft 466 kts 220°
2026-04-21 13:33 -1.22897 122.70470 37934 ft 467 kts 220°
2026-04-21 13:34 -1.27818 122.66220 37929 ft 467 kts 220°
2026-04-21 13:34 -1.32741 122.61970 37923 ft 467 kts 220°
2026-04-21 13:35 -1.37661 122.57721 37922 ft 467 kts 220°
2026-04-21 13:35 -1.42558 122.53493 37919 ft 467 kts 220°
2026-04-21 13:36 -1.47475 122.49246 37915 ft 467 kts 220°
2026-04-21 13:36 -1.52385 122.45006 37911 ft 466 kts 220°
2026-04-21 13:37 -1.57263 122.40793 37910 ft 466 kts 220°
2026-04-21 13:37 -1.62168 122.36556 37913 ft 465 kts 220°
2026-04-21 13:38 -1.67066 122.32325 37913 ft 465 kts 220°
2026-04-21 13:38 -1.71970 122.28089 37914 ft 465 kts 220°
2026-04-21 13:39 -1.76838 122.23883 37912 ft 465 kts 220°
2026-04-21 13:39 -1.81735 122.19653 37915 ft 465 kts 220°
2026-04-21 13:40 -1.86638 122.15416 37916 ft 466 kts 220°
2026-04-21 13:40 -1.91541 122.11179 37913 ft 466 kts 220°
2026-04-21 13:41 -1.96452 122.06935 37914 ft 467 kts 220°
2026-04-21 13:41 -2.01366 122.02687 37913 ft 467 kts 220°
2026-04-21 13:42 -2.06291 121.98430 37920 ft 468 kts 220°
2026-04-21 13:42 -2.11184 121.94200 37916 ft 468 kts 220°
2026-04-21 13:43 -2.16113 121.89938 37915 ft 468 kts 220°
2026-04-21 13:43 -2.21048 121.85677 37926 ft 469 kts 220°
2026-04-21 13:44 -2.25995 121.81406 37931 ft 469 kts 220°
2026-04-21 13:44 -2.30931 121.77134 37937 ft 469 kts 220°
2026-04-21 13:45 -2.35871 121.72855 37942 ft 469 kts 220°
2026-04-21 13:45 -2.40786 121.68601 37941 ft 470 kts 220°
2026-04-21 13:46 -2.45786 121.64391 37948 ft 470 kts 219°
2026-04-21 13:46 -2.50862 121.60282 37948 ft 470 kts 218°
2026-04-21 13:47 -2.55931 121.56166 37951 ft 469 kts 219°
2026-04-21 13:47 -2.60984 121.52032 37956 ft 469 kts 219°
2026-04-21 13:48 -2.66029 121.47894 37948 ft 469 kts 219°
2026-04-21 13:48 -2.71085 121.43832 37951 ft 468 kts 213°
2026-04-21 13:49 -2.76785 121.40694 37954 ft 468 kts 204°
2026-04-21 13:49 -2.82711 121.38005 37952 ft 467 kts 204°
2026-04-21 13:50 -2.88621 121.35266 37949 ft 467 kts 205°
2026-04-21 13:50 -2.94478 121.32456 37940 ft 467 kts 205°
2026-04-21 13:51 -3.00325 121.29624 37951 ft 467 kts 205°
2026-04-21 13:51 -3.06172 121.26794 37957 ft 466 kts 205°
2026-04-21 13:52 -3.12018 121.23967 37955 ft 466 kts 205°
2026-04-21 13:52 -3.17859 121.21139 37956 ft 466 kts 206°
2026-04-21 13:53 -3.23651 121.18294 37965 ft 467 kts 206°
2026-04-21 13:53 -3.29479 121.15422 37958 ft 467 kts 206°
2026-04-21 13:54 -3.35311 121.12553 37963 ft 467 kts 206°
2026-04-21 13:54 -3.40120 121.10068 37956 ft 467 kts 209°
2026-04-21 13:55 -3.46666 121.06210 37952 ft 467 kts 211°
2026-04-21 13:55 -3.51302 121.03418 37941 ft 467 kts 211°
2026-04-21 13:56 -3.56879 121.00086 37941 ft 467 kts 210°
2026-04-21 13:56 -3.62474 120.96770 37917 ft 467 kts 210°
2026-04-21 13:57 -3.68076 120.93459 37922 ft 466 kts 210°
2026-04-21 13:57 -3.73651 120.90163 37907 ft 465 kts 210°
2026-04-21 13:58 -3.79193 120.86885 37900 ft 465 kts 210°
2026-04-21 13:58 -3.84755 120.83594 37898 ft 464 kts 210°
2026-04-21 13:59 -3.90319 120.80301 37893 ft 464 kts 210°
2026-04-21 13:59 -3.95876 120.77012 37859 ft 463 kts 210°
2026-04-21 14:00 -4.01376 120.73756 37673 ft 453 kts 210°
2026-04-21 14:00 -4.04073 120.72159 37272 ft 447 kts 210°
2026-04-21 14:00 -4.06755 120.70571 36713 ft 447 kts 210°
2026-04-21 14:01 -4.09438 120.68982 36158 ft 447 kts 209°
2026-04-21 14:01 -4.12080 120.67418 35570 ft 448 kts 209°
2026-04-21 14:01 -4.14772 120.65825 34915 ft 451 kts 209°
2026-04-21 14:01 -4.17478 120.64223 34247 ft 454 kts 209°
2026-04-21 14:02 -4.20209 120.62606 33651 ft 455 kts 208°
2026-04-21 14:02 -4.22923 120.60998 33131 ft 452 kts 208°
2026-04-21 14:02 -4.25626 120.59397 32630 ft 449 kts 209°
2026-04-21 14:03 -4.30974 120.56228 31676 ft 444 kts 209°
2026-04-21 14:03 -4.33626 120.54657 31211 ft 441 kts 209°
2026-04-21 14:03 -4.36258 120.53097 30744 ft 439 kts 209°
2026-04-21 14:03 -4.38879 120.51544 30265 ft 437 kts 209°
2026-04-21 14:04 -4.41494 120.49994 29765 ft 435 kts 209°
2026-04-21 14:04 -4.44093 120.48454 29247 ft 433 kts 209°
2026-04-21 14:04 -4.46683 120.46918 28742 ft 431 kts 209°
2026-04-21 14:04 -4.49259 120.45391 28254 ft 428 kts 209°
2026-04-21 14:05 -4.51786 120.43893 27772 ft 426 kts 209°
2026-04-21 14:05 -4.54365 120.42364 27301 ft 423 kts 209°
2026-04-21 14:05 -4.56863 120.40882 26837 ft 421 kts 209°
2026-04-21 14:05 -4.59382 120.39388 26373 ft 420 kts 209°
2026-04-21 14:06 -4.61897 120.37897 25899 ft 418 kts 209°
2026-04-21 14:06 -4.64401 120.36412 25402 ft 418 kts 209°
2026-04-21 14:06 -4.66900 120.34929 24934 ft 417 kts 210°
2026-04-21 14:06 -4.69393 120.33442 24458 ft 417 kts 210°
2026-04-21 14:07 -4.71884 120.31957 23984 ft 416 kts 210°
2026-04-21 14:07 -4.74373 120.30477 23507 ft 416 kts 210°
2026-04-21 14:07 -4.76863 120.28998 22961 ft 414 kts 210°
2026-04-21 14:07 -4.79323 120.27538 22463 ft 407 kts 210°
2026-04-21 14:08 -4.81741 120.26103 21989 ft 399 kts 210°
2026-04-21 14:08 -4.84112 120.24695 21537 ft 393 kts 210°
2026-04-21 14:08 -4.86451 120.23307 21099 ft 387 kts 210°
2026-04-21 14:08 -4.88738 120.21950 20676 ft 387 kts 209°
2026-04-21 14:09 -4.91054 120.20575 20228 ft 386 kts 209°
2026-04-21 14:09 -4.93370 120.19200 19782 ft 385 kts 209°
2026-04-21 14:09 -4.95665 120.17837 19324 ft 381 kts 209°
2026-04-21 14:09 -4.97933 120.16489 18899 ft 377 kts 209°
2026-04-21 14:10 -5.00177 120.15156 18455 ft 373 kts 209°
2026-04-21 14:10 -5.02407 120.13831 17991 ft 371 kts 209°
2026-04-21 14:10 -5.04623 120.12514 17530 ft 369 kts 209°
2026-04-21 14:10 -5.06831 120.11202 17094 ft 368 kts 209°
2026-04-21 14:11 -5.09033 120.09893 16663 ft 367 kts 209°
2026-04-21 14:11 -5.11232 120.08586 16238 ft 366 kts 209°
2026-04-21 14:11 -5.13395 120.07302 15843 ft 365 kts 209°
2026-04-21 14:11 -5.15558 120.05966 15392 ft 366 kts 216°
2026-04-21 14:12 -5.17279 120.04088 14962 ft 368 kts 238°
2026-04-21 14:12 -5.18250 120.01727 14523 ft 364 kts 258°
2026-04-21 14:12 -5.18478 119.99220 14113 ft 357 kts 268°
2026-04-21 14:12 -5.18540 119.96753 13659 ft 351 kts 269°
2026-04-21 14:13 -5.18581 119.94322 13215 ft 346 kts 269°
2026-04-21 14:13 -5.18630 119.91920 12792 ft 343 kts 269°
2026-04-21 14:13 -5.18692 119.89576 12388 ft 339 kts 268°
2026-04-21 14:13 -5.18765 119.87239 12062 ft 331 kts 268°
2026-04-21 14:14 -5.18840 119.84959 11682 ft 324 kts 268°
2026-04-21 14:14 -5.18917 119.82704 11287 ft 315 kts 266°
2026-04-21 14:14 -5.19447 119.80643 10947 ft 306 kts 243°
2026-04-21 14:14 -5.20655 119.78942 10678 ft 295 kts 227°
2026-04-21 14:15 -5.22015 119.77445 10393 ft 286 kts 226°
2026-04-21 14:15 -5.23356 119.76003 10114 ft 279 kts 226°
2026-04-21 14:15 -5.24676 119.74580 9855 ft 277 kts 226°
2026-04-21 14:15 -5.25984 119.73162 9576 ft 278 kts 226°
2026-04-21 14:16 -5.27293 119.71734 9276 ft 279 kts 226°
2026-04-21 14:16 -5.28603 119.70300 9009 ft 278 kts 226°
2026-04-21 14:16 -5.29906 119.68869 8730 ft 277 kts 226°
2026-04-21 14:16 -5.31200 119.67446 8449 ft 275 kts 226°
2026-04-21 14:17 -5.32468 119.66051 8198 ft 273 kts 226°
2026-04-21 14:17 -5.33749 119.64641 7926 ft 272 kts 227°
2026-04-21 14:17 -5.35020 119.63243 7668 ft 271 kts 226°
2026-04-21 14:17 -5.36288 119.61849 7406 ft 270 kts 227°
2026-04-21 14:18 -5.37330 119.60300 7115 ft 269 kts 251°
2026-04-21 14:18 -5.37523 119.58455 6840 ft 267 kts 279°
2026-04-21 14:18 -5.36927 119.56705 6551 ft 265 kts 298°
2026-04-21 14:18 -5.36038 119.55080 6235 ft 266 kts 300°
2026-04-21 14:19 -5.35134 119.53478 5910 ft 266 kts 300°
2026-04-21 14:19 -5.34230 119.51859 5597 ft 265 kts 300°
2026-04-21 14:19 -5.33339 119.50242 5284 ft 264 kts 299°
2026-04-21 14:19 -5.32461 119.48637 4975 ft 261 kts 299°
2026-04-21 14:20 -5.31593 119.47048 4676 ft 258 kts 299°
2026-04-21 14:20 -5.30707 119.45502 4352 ft 252 kts 308°
2026-04-21 14:20 -5.29374 119.44442 4075 ft 241 kts 339°
2026-04-21 14:20 -5.27790 119.44181 3826 ft 225 kts
2026-04-21 14:21 -5.26336 119.44538 3567 ft 213 kts 25°
2026-04-21 14:21 -5.25058 119.45215 3345 ft 202 kts 30°
2026-04-21 14:21 -5.23872 119.45908 3120 ft 192 kts 31°
2026-04-21 14:21 -5.22751 119.46562 2948 ft 180 kts 30°
2026-04-21 14:22 -5.21679 119.47177 2744 ft 175 kts 30°
2026-04-21 14:22 -5.20627 119.47786 2527 ft 173 kts 30°
2026-04-21 14:22 -5.19612 119.48374 2309 ft 164 kts 30°
2026-04-21 14:22 -5.18660 119.48926 2110 ft 152 kts 29°
2026-04-21 14:23 -5.17762 119.49447 1922 ft 147 kts 29°
2026-04-21 14:23 -5.16884 119.49957 1754 ft 148 kts 29°
2026-04-21 14:23 -5.15995 119.50473 1565 ft 147 kts 29°
2026-04-21 14:23 -5.15108 119.50988 1378 ft 147 kts 30°
2026-04-21 14:24 -5.14223 119.51502 1199 ft 147 kts 30°
2026-04-21 14:24 -5.13336 119.52017 1017 ft 147 kts 30°
2026-04-21 14:24 -5.12449 119.52532 827 ft 147 kts 30°
2026-04-21 14:24 -5.11568 119.53049 650 ft 146 kts 32°
2026-04-21 14:25 -5.10696 119.53548 416 ft 146 kts 31°
2026-04-21 14:25 -5.09828 119.54057 245 ft 145 kts 31°
2026-04-21 14:25 -5.08952 119.54563 49 ft 143 kts 31°
2026-04-21 14:25 -5.08178 119.55011 37 ft 109 kts 29°
2026-04-21 14:26 -5.07652 119.55314 41 ft 64 kts 30°
2026-04-21 14:26 -5.07425 119.55417 40 ft 30 kts 13°
2026-04-21 14:26 -5.07283 119.55428 37 ft 14 kts 360°
2026-04-21 14:26 -5.07222 119.55426 40 ft 5 kts 344°
2026-04-21 14:27 -5.07205 119.55400 39 ft 4 kts 284°
2026-04-21 14:27 -5.07209 119.55371 40 ft 4 kts 241°
2026-04-21 14:27 -5.07232 119.55351 40 ft 4 kts 218°
2026-04-21 14:27 -5.07255 119.55333 40 ft 4 kts 218°
2026-04-21 14:28 -5.07277 119.55316 40 ft 4 kts 218°
2026-04-21 14:28 -5.07302 119.55301 40 ft 5 kts 205°
2026-04-21 14:28 -5.07355 119.55280 40 ft 11 kts 206°
2026-04-21 14:28 -5.07438 119.55234 40 ft 15 kts 209°
2026-04-21 14:29 -5.07526 119.55183 40 ft 14 kts 210°
2026-04-21 14:29 -5.07608 119.55134 40 ft 8 kts 217°
2026-04-21 14:29 -5.07621 119.55086 40 ft 8 kts 293°
2026-04-21 14:29 -5.07596 119.55039 40 ft 8 kts 299°
2026-04-21 14:30 -5.07582 119.54990 40 ft 7 kts 264°
2026-04-21 14:30 -5.07591 119.54941 38 ft 7 kts 256°
2026-04-21 14:30 -5.07617 119.54904 39 ft 4 kts 215°
2026-04-21 14:30 -5.07638 119.54891 40 ft 3 kts 210°
2026-04-21 14:31 -5.07659 119.54879 40 ft 3 kts 210°
2026-04-21 14:31 -5.07680 119.54866 39 ft 4 kts 210°
2026-04-21 14:31 -5.07706 119.54851 40 ft 5 kts 210°
2026-04-21 14:31 -5.07735 119.54834 40 ft 4 kts 211°
2026-04-21 14:32 -5.07740 119.54825 40 ft 3 kts 249°
2026-04-21 14:32 -5.07736 119.54815 40 ft 2 kts 292°
2026-04-21 14:32 -5.07725 119.54794 39 ft 4 kts 299°
2026-04-21 14:32 -5.07712 119.54772 40 ft 4 kts 300°
2026-04-21 14:33 -5.07707 119.54762 40 ft 1 kts 300°